Regional Weather Roundup
Issued by NWS Cleveland, OH

Home | Current Version | Previous Version | Text Only | Print | Product List | Glossary On
Versions: 1 2 3 4 5 6 7 8 9 10 11 12 13 14 15 16 17 18 19 20 21 22 23 24 25 26 27 28 29 30 31 32 33 34 35 36 37 38 39 40 41 42 43 44 45 46 47 48 49 50
000
ASUS41 KCLE 251402
RWRCLE
OHIO REGIONAL WEATHER ROUNDUP
NATIONAL WEATHER SERVICE CLEVELAND, OH
1000 AM EDT FRI JUL 25 2014

NOTE: "FAIR" INDICATES FEW OR NO CLOUDS BELOW 12,000 FEET WITH NO
SIGNIFICANT WEATHER AND/OR OBSTRUCTIONS TO VISIBILITY.

OHZ001>008-015>018-024>027-034-035-043-044-251500-
   NORTHWEST OHIO

CITY           SKY/WX    TMP DP  RH WIND       PRES   REMARKS
DEFIANCE       MOSUNNY   69  54  58 SW6       30.12R
FINDLAY        SUNNY     68  53  58 S10       30.10S
TOLEDO EXPRESS MOSUNNY   66  53  63 S6        30.11R
TOLEDO EXEC    SUNNY     67  53  61 S5        30.12R
LIMA           SUNNY     67  54  63 S7        30.11S
$$

OHZ009>014-019>023-028>033-038-089-251500-
   NORTHEAST OHIO

CITY           SKY/WX    TMP DP  RH WIND       PRES   REMARKS
CLE-HOPKINS    MOSUNNY   69  55  60 W7        30.15R
CLE-LAKEFRONT  SUNNY     69  53  56 W9        30.11R
CUY CO. ARPT   MOSUNNY   72  57  60 W12       30.13R
LORAIN-ELYRIA  SUNNY     70  54  56 SW8       30.12R
ASHTABULA      SUNNY     67  53  61 W6        30.12R
AKRON-CANTON   MOSUNNY   68  51  54 SW5       30.14R
WOOSTER        SUNNY     68  56  65 CALM      30.14R
MANSFIELD      SUNNY     67  52  58 E7        30.13F
YOUNGSTOWN     MOSUNNY   66  51  58 SW5       30.12S
$$

OHZ042-051>053-060>062-070>072-077>081-251500-
  SOUTHWEST OHIO

CITY           SKY/WX    TMP DP  RH WIND       PRES   REMARKS
CINC-COVINGTON PTSUNNY   70  53  54 SE7       30.10S
CINC-LUNKEN    MOSUNNY   68  59  73 CALM      30.10F
HAMILTON       SUNNY     68  56  65 CALM      30.11S
DAYTON         MOSUNNY   68  54  60 CALM      30.12F
WRIGHT-PAT AFB SUNNY     67  54  62 S5        30.11F
DAYTON GENERAL SUNNY     67  55  65 S3        30.10S
WILMINGTON     SUNNY     68  56  65 SE7       30.09F
$$

OHZ036-037-039>041-045>050-054>059-063>069-073>076-082>088-251500-
  CENTRAL AND SOUTHEAST OHIO

CITY           SKY/WX    TMP DP  RH WIND       PRES   REMARKS
COLUMBUS       MOSUNNY   68  51  54 S3        30.12F
OSU AIRPORT    SUNNY     67  52  58 VRB3      30.11F
BOLTON FIELD   SUNNY     64  55  72 SE3       30.12F
RICKENBACK AFB SUNNY     67  51  56 CALM      30.11F
NEWARK         SUNNY     65  53  65 S3        30.12F
MARION         SUNNY     66  53  63 S5        30.12F
LANCASTER      SUNNY     68  55  63 S3        30.12F
ZANESVILLE     SUNNY     65  53  65 SE5       30.11F
NEW PHILLY     SUNNY     66  55  67 CALM      30.13S
$$


USA.gov is the U.S. government's official web portal to all federal, state and local government web resources and services.